カタログに戻る

ALSAT 3A

運用中科学SSO
NORAD 67474·PAYLOAD·🇩🇿 Algeria

打ち上げ Jan 15, 2026 から Jiuquan Satellite Launch Center

Loading…

次のパス (今後24時間)

TLE

最新Source: Space-Track

元期: Sep 14, 2026, 12:33 UTC

1 67474U 26009A   26257.52316304  .00004393  00000-0  18603-3 0  9991
2 67474  97.4471 330.7640 0011021 149.2130 210.9756 15.23637991 36870

AllMySatでALSAT 3Aをリアルタイム追跡

Download on the App Store